Date String (YYYY-MM-DD hh:mm:ss) UTC,Instrument flags,absolute air pressure of the measurement (hPa),sample flow rate (lpm),inlet stack bypass flow (lpm),air temperature of the measurement (°C),ambient temperature measured by the external sensor (°C),aerosol sample conditioner tube jacket temperature (°C),OPC LED temperature (°C),internal box temperature (°C),relative humidity of the measurement (%),span deviation,mass concentration of particles derived from Lorenz-Mie calculation of OPC scattering (μg/m³),mass concentration of particles derived from Lorenz-Mie calculation of OPC scattering (μg/m³),mass concentration of particles derived from Lorenz-Mie calculation of OPC scattering (μg/m³)
DateTimeUTC,F1_M11,P_M11,Q1_M11,Q2_M11,T1_M11,T2_M11,T3_M11,T4_M11,T5_M11,U1_M11,ZSPAN_M11,X2_M11,X0_M11,X1_M11
2024-01-23 20:00:00,SystemResetWarning,0824.9,5.00,000.00,025.4,024.7,000.0,033.6,026.8,14.6,0002.0,0013.37,0022.98,0012.33
2024-01-23 20:01:00,SystemResetWarning,0824.9,5.00,000.00,025.4,024.7,000.0,033.6,026.9,14.9,0002.3,0013.60,0023.74,0012.53
2024-01-23 20:02:00,SystemResetWarning,0824.8,5.00,000.00,025.5,024.7,000.0,033.6,026.8,14.9,0002.2,0013.78,0024.84,0012.64
2024-01-23 20:03:00,SystemResetWarning,0824.8,5.00,000.00,025.5,024.7,000.0,033.6,026.9,14.7,0002.2,0013.88,0024.77,0012.77
2024-01-23 20:04:00,SystemResetWarning,0824.8,5.00,000.00,025.5,024.7,000.0,033.6,026.9,14.7,0002.2,0014.03,0025.53,0012.88
2024-01-23 20:05:00,SystemResetWarning,0824.7,5.00,000.00,025.5,024.8,000.0,033.7,026.9,14.8,0002.0,0013.99,0026.61,0012.81
2024-01-23 20:06:00,SystemResetWarning,0824.8,5.00,000.00,025.5,024.8,000.0,033.7,026.9,14.7,0002.2,0013.82,0026.13,0012.66
2024-01-23 20:07:00,SystemResetWarning,0824.8,5.00,000.00,025.5,024.8,000.0,033.7,026.9,14.9,0002.5,0013.66,0026.52,0012.50
2024-01-23 20:08:00,SystemResetWarning,0824.8,5.00,000.00,025.5,024.8,000.0,033.7,027.0,14.9,0002.8,0013.41,0026.80,0012.27
2024-01-23 20:09:00,SystemResetWarning,0824.7,5.00,000.00,025.5,024.8,000.0,033.7,027.0,14.9,0002.8,0013.20,0026.15,0012.04
2024-01-23 20:10:00,SystemResetWarning,0824.7,5.00,000.00,025.5,024.9,000.0,033.7,027.0,14.9,0002.8,0013.00,0025.91,0011.83
2024-01-23 20:11:00,SystemResetWarning,0824.7,5.00,000.00,025.6,024.9,000.0,033.7,027.0,14.7,0002.9,0012.68,0024.96,0011.57
2024-01-23 20:12:00,SystemResetWarning,0824.8,5.00,000.00,025.6,024.9,000.0,033.7,027.0,14.7,0002.7,0012.38,0024.81,0011.29
2024-01-23 20:13:00,SystemResetWarning,0824.7,5.00,000.00,025.6,024.9,000.0,033.8,027.0,14.6,0002.7,0012.16,0023.70,0011.10
2024-01-23 20:14:00,SystemResetWarning,0824.7,5.00,000.00,025.6,024.9,000.0,033.8,027.0,14.6,0002.5,0011.99,0023.16,0010.93
2024-01-23 20:15:00,SystemResetWarning,0824.7,5.00,000.00,025.6,024.9,000.0,033.8,027.0,14.7,0002.3,0011.89,0022.65,0010.83
2024-01-23 20:16:00,SystemResetWarning,0824.7,4.99,000.00,025.6,024.9,000.0,033.8,027.0,14.7,0002.5,0011.85,0021.26,0010.83
2024-01-23 20:17:00,SystemResetWarning,0824.7,4.99,000.00,025.6,024.9,000.0,033.8,027.0,14.7,0002.5,0012.02,0020.93,0010.93
2024-01-23 20:18:00,SystemResetWarning,0824.7,5.00,000.00,025.6,024.9,000.0,033.8,027.0,14.7,0002.3,0012.10,0020.52,0011.01
2024-01-23 20:19:00,SystemResetWarning,0824.7,5.00,000.00,025.6,024.9,000.0,033.8,027.0,14.7,0002.0,0012.17,0020.09,0011.07
2024-01-23 20:20:00,SystemResetWarning,0824.7,5.00,000.00,025.6,025.0,000.0,033.8,027.1,14.9,0002.2,0012.07,0020.71,0011.03
2024-01-23 20:21:00,SystemResetWarning,0824.7,5.00,000.00,025.6,025.0,000.0,033.8,027.1,14.9,0002.0,0011.89,0020.07,0010.92
2024-01-23 20:22:00,SystemResetWarning,0824.7,5.01,000.00,025.7,025.0,000.0,033.9,027.1,14.9,0001.9,0011.88,0020.42,0010.85
2024-01-23 20:23:00,SystemResetWarning,0824.6,5.00,000.00,025.7,025.0,000.0,033.9,027.1,14.9,0001.8,0011.87,0019.69,0010.84
2024-01-23 20:24:00,SystemResetWarning,0824.6,4.99,000.00,025.7,025.0,000.0,033.9,027.1,14.9,0001.9,0011.82,0019.59,0010.82
2024-01-23 20:25:00,SystemResetWarning,0824.6,4.99,000.00,025.7,025.0,000.0,033.9,027.1,14.9,0002.2,0011.78,0019.91,0010.81
2024-01-23 20:26:00,SystemResetWarning,0824.5,4.99,000.00,025.7,025.0,000.0,033.9,027.1,14.9,0002.3,0011.65,0019.53,0010.71
2024-01-23 20:27:00,SystemResetWarning,0824.5,5.00,000.00,025.7,025.0,000.0,033.9,027.1,14.9,0002.4,0011.63,0019.39,0010.67
2024-01-23 20:28:00,SystemResetWarning,0824.5,5.01,000.00,025.8,025.1,000.0,033.9,027.2,15.0,0002.3,0011.53,0019.45,0010.60
2024-01-23 20:29:00,SystemResetWarning,0824.5,5.01,000.00,025.8,025.1,000.0,033.9,027.2,15.1,0002.1,0011.50,0019.60,0010.54
2024-01-23 20:30:00,SystemResetWarning,0824.5,5.01,000.00,025.8,025.1,000.0,034.0,027.2,15.0,0002.4,0011.48,0019.57,0010.54
2024-01-23 20:31:00,SystemResetWarning,0824.5,5.00,000.00,025.8,025.1,000.0,034.0,027.2,14.7,0002.3,0011.53,0018.66,0010.60
2024-01-23 20:32:00,SystemResetWarning,0824.5,5.00,000.00,025.8,025.1,000.0,034.0,027.2,14.8,0002.6,0011.66,0018.92,0010.71
2024-01-23 20:33:00,SystemResetWarning,0824.5,4.99,000.00,025.8,025.2,000.0,034.0,027.2,14.8,0002.5,0011.73,0018.59,0010.80
2024-01-23 20:34:00,SystemResetWarning,0824.5,4.99,000.00,025.8,025.2,000.0,034.0,027.2,14.8,0002.5,0011.78,0018.80,0010.89
2024-01-23 20:35:00,SystemResetWarning,0824.5,5.00,000.00,025.8,025.2,000.0,034.0,027.2,14.8,0002.3,0011.75,0019.86,0010.88
2024-01-23 20:36:00,SystemResetWarning,0824.5,5.00,000.00,025.9,025.2,000.0,034.0,027.3,14.7,0002.5,0011.66,0019.17,0010.84
2024-01-23 20:37:00,SystemResetWarning,0824.5,5.01,000.00,025.9,025.2,000.0,034.0,027.3,14.8,0002.6,0011.65,0019.16,0010.83
2024-01-23 20:38:00,SystemResetWarning,0824.5,5.00,000.00,025.9,025.2,000.0,034.1,027.3,14.8,0002.5,0011.65,0019.10,0010.83
2024-01-23 20:39:00,SystemResetWarning,0824.5,5.00,000.00,025.9,025.2,000.0,034.1,027.3,14.8,0002.4,0011.64,0018.76,0010.85
2024-01-23 20:40:00,SystemResetWarning,0824.5,5.00,000.00,025.9,025.3,000.0,034.1,027.3,14.8,0002.7,0011.61,0018.69,0010.87
2024-01-23 20:41:00,SystemResetWarning,0824.5,5.00,000.00,025.9,025.3,000.0,034.1,027.3,14.7,0002.7,0011.58,0018.23,0010.85
2024-01-23 20:42:00,SystemResetWarning,0824.4,5.00,000.00,025.9,025.3,000.0,034.1,027.4,14.7,0002.8,0011.57,0018.33,0010.82
2024-01-23 20:43:00,SystemResetWarning,0824.5,5.01,000.00,026.0,025.3,000.0,034.1,027.4,14.7,0002.5,0011.59,0018.60,0010.82
2024-01-23 20:44:00,SystemResetWarning,0824.5,5.00,000.00,026.0,025.3,000.0,034.1,027.4,14.6,0002.5,0011.61,0018.71,0010.86
2024-01-23 20:45:00,SystemResetWarning,0824.5,5.00,000.00,026.0,025.3,000.0,034.2,027.4,14.6,0002.5,0011.67,0019.79,0010.91
2024-01-23 20:46:00,SystemResetWarning,0824.5,5.00,000.00,026.0,025.4,000.0,034.2,027.4,14.6,0002.9,0011.73,0019.23,0010.95
2024-01-23 20:47:00,SystemResetWarning,0824.5,5.00,000.00,026.0,025.4,000.0,034.2,027.4,14.6,0003.1,0011.80,0019.17,0011.00
2024-01-23 20:48:00,SystemResetWarning,0824.5,5.00,000.00,026.0,025.4,000.0,034.2,027.5,14.7,0002.9,0011.89,0019.31,0011.07
2024-01-23 20:49:00,SystemResetWarning,0824.4,5.00,000.00,026.0,025.4,000.0,034.2,027.5,14.8,0003.0,0011.95,0019.95,0011.12
2024-01-23 20:50:00,SystemResetWarning,0824.4,5.00,000.00,026.1,025.4,000.0,034.2,027.5,14.7,0003.1,0011.98,0020.28,0011.15
2024-01-23 20:51:00,SystemResetWarning,0824.4,5.00,000.00,026.1,025.4,000.0,034.2,027.5,14.7,0003.1,0012.02,0020.39,0011.17
2024-01-23 20:52:00,SystemResetWarning,0824.4,5.00,000.00,026.1,025.4,000.0,034.3,027.5,14.6,0002.8,0012.07,0020.11,0011.21
2024-01-23 20:53:00,SystemResetWarning,0824.4,5.01,000.00,026.1,025.4,000.0,034.3,027.5,14.7,0002.8,0012.05,0020.49,0011.20
2024-01-23 20:54:00,SystemResetWarning,0824.4,5.00,000.00,026.1,025.4,000.0,034.3,027.6,14.7,0003.0,0011.92,0020.82,0011.12
2024-01-23 20:55:00,SystemResetWarning,0824.4,5.00,000.00,026.1,025.5,000.0,034.3,027.5,14.7,0003.1,0011.78,0020.10,0011.01
2024-01-23 20:56:00,SystemResetWarning,0824.4,5.00,000.00,026.1,025.5,000.0,034.3,027.5,14.7,0003.0,0011.74,0019.93,0010.95
2024-01-23 20:57:00,SystemResetWarning,0824.4,5.00,000.00,026.1,025.5,000.0,034.3,027.5,14.6,0002.8,0011.71,0018.84,0010.90
2024-01-23 20:58:00,SystemResetWarning,0824.4,5.00,000.00,026.1,025.5,000.0,034.3,027.6,14.7,0002.5,0011.69,0018.73,0010.85
2024-01-23 20:59:00,SystemResetWarning,0824.4,5.00,000.00,026.2,025.5,000.0,034.4,027.6,14.7,0002.6,0011.59,0019.12,0010.76
